www.pogodaiklimat.ru

Погода и климат >> Архив погоды >> Канада >> Pelly Bay


ПОГОДА в Pelly Bay

  • Прогноз погоды в Pelly Bay
  • Монитор погоды в Pelly Bay
  • Климат города

АРХИВ ПОГОДЫ в Pelly Bay

Время (UTC), дата Ветер
(напр.,м/с)
 
Видим.   Явления Облачность Т
(С)
Тd
(С)
f
(%)
Тe
(С)
Тes
(С)
Комфортность P
(гПа)
Po
(гПа)
Тmin
(С)
Tmax
(С)
R
(мм)
R24
(мм)
S
(см)
06 15.10 СЗ 12 н/о н/о -12.7 -25 -25 1006.8 964.8 -13.1 -11.9 111
09 15.10 З 10 н/о н/о -13.1 -25 -25 1006.9 964.9
12 15.10 СЗ 12 н/о н/о -12.1 -24 -24 1005.9 964.0 -13.3 -11.9
15 15.10 СЗ 11 н/о н/о -12.4 -24 -24 1005.5 963.6
18 15.10 СЗ 12 н/о н/о -12.3 -24 -24 1005.1 963.2 -13.3 -12.1
21 15.10 СЗ 12 н/о н/о -12.8 -25 -25 1005.0 963.1
00 16.10 СЗ 11 н/о н/о -13.0 -25 -25 1004.9 963.0 -13.3 -12.1
03 16.10 СЗ 10 н/о н/о -12.4 -23 -23 1004.2 962.4
06 16.10 СЗ 10 н/о н/о -13.0 -24 -24 1003.9 962.1 -13.3 -12.1 161
09 16.10 СВ 8 н/о н/о -13.0 -23 -23 1004.8 962.9
12 16.10 С 7 н/о н/о -13.5 -23 -23 1006.1 964.1 -13.6 -12.1
15 16.10 С 7 н/о н/о -13.4 -23 -23 1006.7 964.7
18 16.10 СЗ 10 н/о н/о -12.9 -24 -24 1007.6 965.6 -13.6 -12.7
21 16.10 С 6 н/о н/о -12.9 -22 -22 1009.0 966.9
00 17.10 СЗ 8 н/о н/о -14.1 -25 -25 1010.1 967.9 -14.1 -12.3
03 17.10 СЗ 7 н/о н/о -15.1 -25 -25 1009.9 967.7
06 17.10 З 6 н/о н/о -17.0 -27 -27 1010.2 967.9 -17.0 -12.3 71
09 17.10 З 7 н/о н/о -15.9 -27 -27 1009.7 967.4
12 17.10 ЮЗ 3 н/о н/о -16.5 -24 -24 1009.4 967.1 -17.0 -12.3
15 17.10 ЮЗ 5 н/о н/о -16.9 -26 -26 1008.4 966.0
18 17.10 ЮЗ 4 н/о н/о -15.7 -24 -24 1007.7 965.3 -17.1 -15.3
21 17.10 ЮЗ 5 н/о н/о -14.9 -23 -23 1006.8 964.6
00 18.10 ЮЗ 4 н/о н/о -13.7 -21 -21 1006.0 963.8 -17.1 -13.7
03 18.10 ЮЗ 5 н/о н/о -13.4 -22 -22 1004.8 962.7
06 18.10 ЮЗ 5 н/о н/о -13.1 -21 -21 1004.0 962.0 -17.1 -13.1 80
09 18.10 З 5 н/о н/о -12.4 -21 -21 1003.5 961.6
12 18.10 З 8 н/о н/о -12.9 -23 -23 1003.2 961.3 -13.7 -13.1
15 18.10 З 5 н/о н/о -14.1 -22 -22 1003.3 961.4
18 18.10 З 4 н/о н/о -13.6 -21 -21 1003.7 961.8 -15.7 -12.2
21 18.10 З 6 н/о н/о -13.7 -23 -23 1004.1 962.2
00 19.10 З 3 н/о н/о -14.9 -22 -22 1004.9 962.9 -14.9 -12.9
03 19.10 З 3 н/о н/о -14.9 -21 -21 1005.2 963.1
06 19.10 СЗ 3 н/о н/о -14.4 -21 -21 1006.0 963.9 -15.3 -12.2 120
09 19.10 СЗ 4 н/о н/о -14.2 -22 -22 1006.9 964.8
12 19.10 С 5 н/о н/о -13.4 -21 -21 1008.2 966.0 -15.3 -12.2
15 19.10 С 11 н/о н/о -14.9 -27 -27 1009.5 967.2
18 19.10 С 10 н/о н/о -15.5 -28 -28 1011.0 968.6 -15.8 -13.1
21 19.10 С 9 н/о н/о -14.2 -26 -26 1012.3 970.0
00 20.10 С 11 н/о н/о -14.0 -26 -26 1013.3 971.0 -15.8 -13.1
03 20.10 С 9 н/о н/о -14.0 -25 -25 1013.5 971.1
06 20.10 СЗ 8 н/о н/о -16.1 -27 -27 1013.8 971.2 -16.1 -13.1 1
09 20.10 СЗ 7 н/о н/о -19.2 -31 -31 опасность
обморожения
1013.9 971.2
12 20.10 СЗ 10 н/о н/о -16.5 -29 -29 1013.2 970.7 -19.5 -13.1
15 20.10 З 10 н/о н/о -16.1 -28 -28 1012.5 970.1
18 20.10 З 10 н/о н/о -16.3 -29 -29 1012.4 969.9 -19.5 -16.0
21 20.10 З 9 н/о н/о -16.4 -28 -28 1012.7 970.0
00 21.10 З 6 н/о н/о -16.5 -26 -26 1012.9 970.3 -19.5 -16.0
03 21.10 ЮЗ 2 н/о н/о -16.9 -22 -22 1012.7 970.1
06 21.10 ЮЗ 1 н/о н/о -17.0 -20 -20 1013.0 970.4 -19.5 -16.0 111
09 21.10 штиль 0 н/о н/о -16.6 -17 -17 1013.4 970.8
12 21.10 В 3 н/о н/о -16.3 -23 -23 1014.0 971.4 -17.1 -16.0
15 21.10 ЮВ 5 н/о н/о -16.7 -26 -26 1014.8 972.1
18 21.10 штиль 0 н/о н/о -15.3 -15 -15 1015.8 973.1 -17.1 -15.3
21 21.10 ЮВ 5 н/о н/о -15.9 -25 -25 1016.8 974.1
00 22.10 В 4 н/о н/о -16.0 -24 -24 1018.1 975.3 -17.0 -15.2
03 22.10 В 4 н/о н/о -15.8 -24 -24 1019.2 976.4

 

Местоположение метеостанции Pelly Bay (Канада): широта 68.43 долгота -89.71 высота над уровнем моря 325 м.

В архиве по умолчанию представлена погода в Pelly Bay за последнюю неделю. Архивные данные за месяц целиком и за предыдущие месяцы, начиная с января 2011 года, Вы можете получить, выбрав интересующий диапазон дат из раскрывающегося списка и нажав кнопку "Ввод!".


*Определитесь, кто Вы:
робот инопланетянин человек

Внимание! Время в таблицах - всемирное. Для получения местного времени необходимо прибавить поправку, которая в Pelly Bay равна -6 ч.

Смотрите также архив погоды в соседних городах и на ближайших метеорологических станциях:

Погода в Kugaaruk climate (Канада) (12 км)
Погода в Shepherd Bay (Канада) (157 км)
Погода в Spence bay (Канада) (198 км)
Погода в Gjoa Haven Climate (Канада) (251 км)
Погода в Wager Bay (Канада) (284 км)
Погода в Hall Beach Climate (Канада) (345 км)
Погода в Back River MAPS (Канада) (392 км)
Погода в Hat Island (Канада) (421 км)
Погода в Rowley Island (Канада) (436 км)
Погода в Baker Lake Climate (Канада) (536 км)

Пояснения к столбцам:

Ветер - указаны скорость ветра в м/с - средняя за 10 мин, порывы в срок и между сроками (в фигурных скобках) и направление, откуда дует ветер: С - северный, СВ - северо-восточный, В - восточный, ЮВ - юго-восточный, Ю - южный, ЮЗ - юго-западный, З - западный, СЗ - северо-западный.
Видимость - горизонтальная дальность видимости в метрах или километрах. При видимости от 1 до 10 км при отсутствии осадков обычно наблюдается дымка, при ухудшении видимости до 1 км и менее - туман. В сухую погоду видимость может ухудшаться дымом, пылью или мглою.
Явления - указаны атмосферные явления, наблюдавшиеся в срок или в последний час перед сроком; фигурными скобками обозначены явления, наблюдавшиеся между сроками (за 1-3 часа до срока); квадратными скобками обозначены град или гололедные отложения с указанием их диаметра в мм.
Облачность - указаны через наклонную черту общая и нижняя облачность в баллах и высота нижней границы облаков в метрах; квадратными скобками обозначены формы облаков: Ci - перистые, Cs - перисто-слоистые, Cc - перисто-кучевые, Ac - высококучевые, As - высокослоистые, Sc - слоисто-кучевые, Ns - слоисто-дождевые, Cu - кучевые, Cb - кучево-дождевые. Подробнее классификацию облаков см. в Атласе облаков (PDF).
T - Температура воздуха - температура, измеренная на высоте 2 м над землей.
Td - Температура точки росы - температура, при понижении до которой содержащийся в воздухе водяной пар достигнет насыщения.
f - Относительная влажность воздуха - влажноcть воздуха, измеренная на высоте 2 м над землей.
Te - Эффективная температура - температура, которую ощущает одетый по сезону человек в тени. Характеристика душности погоды. При расчете учитывается влияние влажности воздуха и скорости ветра на теплоощущения человека.
Tes - Эффективная температура на солнце - температура, которую ощущает человек, с поправкой на солнечный нагрев. Характеристика знойности погоды. Зависит от высоты солнца над горизонтом, облачности и скорости ветра. Ночью, в пасмурную погоду, а также при ветре 12 м/с и более поправка равна нулю.
P - Атмосферное давление - приведенное к уровню моря атмосферное давление.
Po - Атмосферное давление - измеренное на уровне метеостанции атмосферное давление.
Tmin - Минимальная температура - минимум температуры воздуха на высоте 2 м над землей.
Tmax - Максимальная температура - максимум температуры воздуха на высоте 2 м над землей.
R - Количество осадков - Количество выпавших осадков за период времени, мм. При наведении курсора мыши на число - период времени, за который выпало указанное количество осадков.
R24 - Количество осадков - Количество выпавших осадков за 24 часа, мм.
S - Снежный покров - Высота снежного покрова, см. При наведении курсора мыши на число - состояние снежного покрова и степень покрытия местности в баллах.